Location: Mainz-Finthen
(49.9906°N, 8.1713°E)
Time: 07:22:20
(UTC+00:00)

N. Korean satellite - Pass Details

Date: 03 December 2022
Orbit: 407 x 442 km, 97.3° (Epoch: 04 February)

Event Time Altitude Azimuth Distance (km) Brightness Sun altitude
Rises 16:15:00 0° 183° (S) 2,447 10.6 -7.4°
Reaches altitude 10° 16:17:06 10° 191° (S) 1,590 9.7 -7.7°
Maximum altitude 16:20:20 39° 262° (W) 708 8.1 -8.2°
Drops below altitude 10° 16:23:38 10° 333° (NNW) 1,630 9.3 -8.7°
Sets 16:25:48 0° 341° (NNW) 2,518 10.1 -9.0°
